Year,Month,Day,Hour,Minute,Value (Times are PST for windgust in km/hr)
2013,09,28,00,09,1.60
2013,09,28,01,09,1.60
2013,09,28,02,20,1.60
2013,09,28,03,11,4.80
2013,09,28,03,29,1.60
2013,09,28,03,39,1.60
2013,09,28,05,02,3.20
2013,09,28,05,03,4.80
2013,09,28,05,04,4.80
2013,09,28,05,05,4.80
2013,09,28,05,06,4.80
2013,09,28,05,07,4.80
2013,09,28,05,08,4.80
2013,09,28,05,09,4.80
2013,09,28,05,10,4.80
2013,09,28,05,11,4.80
2013,09,28,05,12,4.80
2013,09,28,05,13,4.80
2013,09,28,05,14,4.80
2013,09,28,05,15,4.80
2013,09,28,05,16,1.60
2013,09,28,05,17,3.20
2013,09,28,05,18,3.20
2013,09,28,05,19,4.80
2013,09,28,05,20,4.80
2013,09,28,05,21,4.80
2013,09,28,05,22,4.80
2013,09,28,05,23,4.80
2013,09,28,05,24,6.40
2013,09,28,05,25,4.80
2013,09,28,05,26,1.60
2013,09,28,05,27,1.60
2013,09,28,05,28,4.80
2013,09,28,05,29,1.60
2013,09,28,05,30,1.60
2013,09,28,05,40,4.80
2013,09,28,05,42,1.60
2013,09,28,05,43,3.20
2013,09,28,05,44,1.60
2013,09,28,05,47,3.20
2013,09,28,05,48,4.80
2013,09,28,05,49,1.60
2013,09,28,05,50,4.80
2013,09,28,05,51,3.20
2013,09,28,05,52,3.20
2013,09,28,05,55,3.20
2013,09,28,05,56,1.60
2013,09,28,05,57,6.40
2013,09,28,05,58,6.40
2013,09,28,05,59,3.20
2013,09,28,06,00,8.10
2013,09,28,06,01,6.40
2013,09,28,06,02,6.40
2013,09,28,06,03,12.90
2013,09,28,06,04,6.40
2013,09,28,06,05,6.40
2013,09,28,06,06,6.40
2013,09,28,06,07,1.60
2013,09,28,06,08,1.60
2013,09,28,06,10,1.60
2013,09,28,06,11,1.60
2013,09,28,06,13,1.60
2013,09,28,06,16,1.60
2013,09,28,06,17,1.60
2013,09,28,06,18,1.60
2013,09,28,06,19,1.60
2013,09,28,06,20,4.80
2013,09,28,06,21,8.10
2013,09,28,06,22,11.30
2013,09,28,06,23,9.60
2013,09,28,06,24,8.10
2013,09,28,06,25,6.40
2013,09,28,06,26,6.40
2013,09,28,06,27,9.60
2013,09,28,06,28,8.10
2013,09,28,06,29,9.60
2013,09,28,06,30,4.80
2013,09,28,06,31,4.80
2013,09,28,06,32,4.80
2013,09,28,06,35,8.10
2013,09,28,06,36,9.60
2013,09,28,06,37,4.80
2013,09,28,06,38,8.10
2013,09,28,06,39,6.40
2013,09,28,06,40,6.40
2013,09,28,06,41,1.60
2013,09,28,06,42,6.40
2013,09,28,06,43,4.80
2013,09,28,06,44,4.80
2013,09,28,06,45,4.80
2013,09,28,06,46,8.10
2013,09,28,06,47,6.40
2013,09,28,06,48,8.10
2013,09,28,06,49,14.50
2013,09,28,06,50,9.60
2013,09,28,06,51,6.40
2013,09,28,06,52,8.10
2013,09,28,06,53,6.40
2013,09,28,06,54,4.80
2013,09,28,06,55,6.40
2013,09,28,06,56,9.60
2013,09,28,06,57,4.80
2013,09,28,06,58,9.60
2013,09,28,06,59,8.10
2013,09,28,07,00,20.90
2013,09,28,07,01,20.90
2013,09,28,07,02,20.90
2013,09,28,07,03,17.70
2013,09,28,07,04,16.10
2013,09,28,07,05,14.50
2013,09,28,07,06,16.10
2013,09,28,07,07,17.70
2013,09,28,07,08,4.80
2013,09,28,07,09,9.60
2013,09,28,07,10,9.60
2013,09,28,07,11,11.30
2013,09,28,07,12,4.80
2013,09,28,07,13,12.90
2013,09,28,07,14,16.10
2013,09,28,07,15,12.90
2013,09,28,07,16,22.50
2013,09,28,07,17,17.70
2013,09,28,07,18,12.90
2013,09,28,07,19,16.10
2013,09,28,07,20,22.50
2013,09,28,07,21,20.90
2013,09,28,07,22,12.90
2013,09,28,07,23,22.50
2013,09,28,07,24,8.10
2013,09,28,07,25,22.50
2013,09,28,07,26,19.30
2013,09,28,07,27,19.30
2013,09,28,07,28,6.40
2013,09,28,07,29,3.20
2013,09,28,07,30,8.10
2013,09,28,07,31,22.50
2013,09,28,07,32,19.30
2013,09,28,07,33,24.20
2013,09,28,07,34,22.50
2013,09,28,07,35,9.60
2013,09,28,07,36,8.10
2013,09,28,07,37,25.70
2013,09,28,07,38,16.10
2013,09,28,07,39,9.60
2013,09,28,07,40,11.30
2013,09,28,07,41,6.40
2013,09,28,07,42,17.70
2013,09,28,07,43,14.50
2013,09,28,07,44,11.30
2013,09,28,07,45,11.30
2013,09,28,07,46,8.10
2013,09,28,07,47,9.60
2013,09,28,07,48,20.90
2013,09,28,07,49,14.50
2013,09,28,07,50,17.70
2013,09,28,07,51,19.30
2013,09,28,07,52,27.40
2013,09,28,07,53,19.30
2013,09,28,07,54,17.70
2013,09,28,07,55,11.30
2013,09,28,07,56,22.50
2013,09,28,07,57,19.30
2013,09,28,07,58,19.30
2013,09,28,07,59,17.70
2013,09,28,08,00,22.50
2013,09,28,08,01,24.20
2013,09,28,08,02,14.50
2013,09,28,08,03,16.10
2013,09,28,08,04,17.70
2013,09,28,08,05,25.70
2013,09,28,08,06,17.70
2013,09,28,08,07,16.10
2013,09,28,08,08,19.30
2013,09,28,08,09,17.70
2013,09,28,08,10,22.50
2013,09,28,08,11,20.90
2013,09,28,08,12,30.60
2013,09,28,08,13,35.40
2013,09,28,08,14,24.20
2013,09,28,08,15,22.50
2013,09,28,08,16,17.70
2013,09,28,08,17,30.60
2013,09,28,08,18,19.30
2013,09,28,08,19,20.90
2013,09,28,08,20,25.70
2013,09,28,08,21,27.40
2013,09,28,08,22,27.40
2013,09,28,08,23,29.00
2013,09,28,08,24,29.00
2013,09,28,08,25,24.20
2013,09,28,08,26,30.60
2013,09,28,08,27,25.70
2013,09,28,08,28,22.50
2013,09,28,08,29,24.20
2013,09,28,08,30,25.70
2013,09,28,08,31,25.70
2013,09,28,08,32,24.20
2013,09,28,08,33,25.70
2013,09,28,08,34,27.40
2013,09,28,08,35,19.30
2013,09,28,08,36,30.60
2013,09,28,08,37,22.50
2013,09,28,08,38,35.40
2013,09,28,08,39,27.40
2013,09,28,08,40,22.50
2013,09,28,08,41,38.60
2013,09,28,08,42,27.40
2013,09,28,08,43,25.70
2013,09,28,08,44,25.70
2013,09,28,08,45,19.30
2013,09,28,08,46,25.70
2013,09,28,08,47,22.50
2013,09,28,08,48,22.50
2013,09,28,08,49,29.00
2013,09,28,08,50,19.30
2013,09,28,08,51,24.20
2013,09,28,08,52,22.50
2013,09,28,08,53,25.70
2013,09,28,08,54,25.70
2013,09,28,08,55,14.50
2013,09,28,08,56,22.50
2013,09,28,08,57,22.50
2013,09,28,08,58,11.30
2013,09,28,08,59,16.10
2013,09,28,09,00,16.10
2013,09,28,09,01,19.30
2013,09,28,09,02,20.90
2013,09,28,09,03,16.10
2013,09,28,09,04,6.40
2013,09,28,09,05,1.60
2013,09,28,09,06,11.30
2013,09,28,09,07,8.10
2013,09,28,09,08,6.40
2013,09,28,09,09,4.80
2013,09,28,09,10,3.20
2013,09,28,09,12,9.60
2013,09,28,09,13,14.50
2013,09,28,09,14,11.30
2013,09,28,09,15,9.60
2013,09,28,09,16,9.60
2013,09,28,09,17,8.10
2013,09,28,09,18,9.60
2013,09,28,09,19,8.10
2013,09,28,09,20,9.60
2013,09,28,09,21,9.60
2013,09,28,09,22,3.20
2013,09,28,09,23,1.60
2013,09,28,09,25,9.60
2013,09,28,09,26,16.10
2013,09,28,09,27,14.50
2013,09,28,09,28,9.60
2013,09,28,09,29,16.10
2013,09,28,09,30,11.30
2013,09,28,09,31,11.30
2013,09,28,09,32,12.90
2013,09,28,09,33,9.60
2013,09,28,09,34,11.30
2013,09,28,09,35,16.10
2013,09,28,09,36,9.60
2013,09,28,09,37,8.10
2013,09,28,09,38,11.30
2013,09,28,09,39,8.10
2013,09,28,09,40,3.20
2013,09,28,09,42,3.20
2013,09,28,09,43,3.20
2013,09,28,09,44,6.40
2013,09,28,09,45,8.10
2013,09,28,09,46,3.20
2013,09,28,09,47,3.20
2013,09,28,09,49,6.40
2013,09,28,09,50,8.10
2013,09,28,09,51,4.80
2013,09,28,09,52,8.10
2013,09,28,09,53,6.40
2013,09,28,09,54,8.10
2013,09,28,09,55,11.30
2013,09,28,09,56,6.40
2013,09,28,09,57,4.80
2013,09,28,09,59,6.40
2013,09,28,10,00,8.10
2013,09,28,10,01,3.20
2013,09,28,10,02,4.80
2013,09,28,10,03,1.60
2013,09,28,10,05,8.10
2013,09,28,10,06,6.40
2013,09,28,10,07,6.40
2013,09,28,10,08,4.80
2013,09,28,10,10,1.60
2013,09,28,10,11,1.60
2013,09,28,10,13,3.20
2013,09,28,10,14,1.60
2013,09,28,10,15,3.20
2013,09,28,10,18,4.80
2013,09,28,10,19,3.20
2013,09,28,10,20,6.40
2013,09,28,10,21,4.80
2013,09,28,10,22,6.40
2013,09,28,10,23,4.80
2013,09,28,10,24,3.20
2013,09,28,10,25,1.60
2013,09,28,10,26,11.30
2013,09,28,10,27,16.10
2013,09,28,10,28,11.30
2013,09,28,10,29,9.60
2013,09,28,10,30,8.10
2013,09,28,10,31,8.10
2013,09,28,10,32,6.40
2013,09,28,10,33,8.10
2013,09,28,10,34,8.10
2013,09,28,10,35,4.80
2013,09,28,10,36,8.10
2013,09,28,10,37,6.40
2013,09,28,10,38,3.20
2013,09,28,10,39,4.80
2013,09,28,10,40,4.80
2013,09,28,10,41,6.40
2013,09,28,10,42,1.60
2013,09,28,10,43,1.60
2013,09,28,10,44,8.10
2013,09,28,10,45,6.40
2013,09,28,10,46,3.20
2013,09,28,10,47,3.20
2013,09,28,10,48,4.80
2013,09,28,10,49,8.10
2013,09,28,10,50,4.80
2013,09,28,10,51,4.80
2013,09,28,10,52,4.80
2013,09,28,10,53,4.80
2013,09,28,10,54,6.40
2013,09,28,10,55,6.40
2013,09,28,10,56,6.40
2013,09,28,10,57,8.10
2013,09,28,10,58,6.40
2013,09,28,10,59,8.10
2013,09,28,11,00,8.10
2013,09,28,11,01,4.80
2013,09,28,11,02,4.80
2013,09,28,11,03,8.10
2013,09,28,11,04,6.40
2013,09,28,11,05,1.60
2013,09,28,11,06,4.80
2013,09,28,11,07,3.20
2013,09,28,11,09,4.80
2013,09,28,11,10,6.40
2013,09,28,11,13,1.60
2013,09,28,11,14,1.60
2013,09,28,11,15,1.60
2013,09,28,11,17,3.20
2013,09,28,11,18,3.20
2013,09,28,11,19,1.60
2013,09,28,11,20,1.60
2013,09,28,11,22,4.80
2013,09,28,11,23,4.80
2013,09,28,11,24,4.80
2013,09,28,11,38,1.60
2013,09,28,11,41,1.60
2013,09,28,11,43,1.60
2013,09,28,11,44,4.80
2013,09,28,11,45,4.80
2013,09,28,11,46,1.60
2013,09,28,11,47,4.80
2013,09,28,11,48,1.60
2013,09,28,11,49,3.20
2013,09,28,11,50,4.80
2013,09,28,11,51,1.60
2013,09,28,11,55,4.80
2013,09,28,11,56,9.60
2013,09,28,11,57,3.20
2013,09,28,11,58,1.60
2013,09,28,11,59,1.60
2013,09,28,12,00,3.20
2013,09,28,12,03,3.20
2013,09,28,12,04,3.20
2013,09,28,12,05,6.40
2013,09,28,12,06,11.30
2013,09,28,12,07,8.10
2013,09,28,12,08,3.20
2013,09,28,12,09,3.20
2013,09,28,12,11,1.60
2013,09,28,12,12,3.20
2013,09,28,12,16,1.60
2013,09,28,12,17,4.80
2013,09,28,12,18,3.20
2013,09,28,12,19,6.40
2013,09,28,12,20,4.80
2013,09,28,12,21,8.10
2013,09,28,12,22,8.10
2013,09,28,12,23,8.10
2013,09,28,12,24,4.80
2013,09,28,12,25,1.60
2013,09,28,12,26,9.60
2013,09,28,12,27,8.10
2013,09,28,12,32,1.60
2013,09,28,12,33,1.60
2013,09,28,12,34,1.60
2013,09,28,12,35,3.20
2013,09,28,12,36,3.20
2013,09,28,12,37,4.80
2013,09,28,12,44,1.60
2013,09,28,12,45,3.20
2013,09,28,12,46,1.60
2013,09,28,12,47,3.20
2013,09,28,12,56,1.60
2013,09,28,12,57,4.80
2013,09,28,12,58,4.80
2013,09,28,13,01,3.20
2013,09,28,13,02,3.20
2013,09,28,13,03,3.20
2013,09,28,13,04,4.80
2013,09,28,13,05,6.40
2013,09,28,13,06,8.10
2013,09,28,13,07,9.60
2013,09,28,13,08,11.30
2013,09,28,13,09,11.30
2013,09,28,13,10,12.90
2013,09,28,13,11,14.50
2013,09,28,13,12,16.10
2013,09,28,13,13,14.50
2013,09,28,13,14,8.10
2013,09,28,13,15,8.10
2013,09,28,13,16,4.80
2013,09,28,13,17,8.10
2013,09,28,13,18,6.40
2013,09,28,13,19,3.20
2013,09,28,13,20,3.20
2013,09,28,13,21,4.80
2013,09,28,13,22,1.60
2013,09,28,13,26,4.80
2013,09,28,13,27,3.20
2013,09,28,13,28,1.60
2013,09,28,13,29,6.40
2013,09,28,13,30,9.60
2013,09,28,13,31,8.10
2013,09,28,13,32,14.50
2013,09,28,13,33,14.50
2013,09,28,13,34,6.40
2013,09,28,13,35,3.20
2013,09,28,13,36,3.20
2013,09,28,13,38,4.80
2013,09,28,13,39,6.40
2013,09,28,13,40,6.40
2013,09,28,13,41,4.80
2013,09,28,13,42,8.10
2013,09,28,13,43,8.10
2013,09,28,13,44,6.40
2013,09,28,13,45,8.10
2013,09,28,13,46,8.10
2013,09,28,13,47,3.20
2013,09,28,13,48,6.40
2013,09,28,13,49,11.30
2013,09,28,13,50,9.60
2013,09,28,13,51,11.30
2013,09,28,13,52,11.30
2013,09,28,13,53,9.60
2013,09,28,13,54,11.30
2013,09,28,13,55,11.30
2013,09,28,13,56,11.30
2013,09,28,13,57,11.30
2013,09,28,13,58,9.60
2013,09,28,13,59,8.10
2013,09,28,14,00,8.10
2013,09,28,14,01,9.60
2013,09,28,14,02,6.40
2013,09,28,14,03,4.80
2013,09,28,14,04,4.80
2013,09,28,14,05,3.20
2013,09,28,14,06,3.20
2013,09,28,14,07,8.10
2013,09,28,14,08,9.60
2013,09,28,14,09,8.10
2013,09,28,14,10,4.80
2013,09,28,14,11,11.30
2013,09,28,14,12,11.30
2013,09,28,14,13,14.50
2013,09,28,14,14,14.50
2013,09,28,14,15,16.10
2013,09,28,14,16,16.10
2013,09,28,14,17,16.10
2013,09,28,14,18,17.70
2013,09,28,14,19,11.30
2013,09,28,14,20,16.10
2013,09,28,14,21,19.30
2013,09,28,14,22,16.10
2013,09,28,14,23,17.70
2013,09,28,14,24,14.50
2013,09,28,14,25,12.90
2013,09,28,14,26,11.30
2013,09,28,14,27,11.30
2013,09,28,14,28,9.60
2013,09,28,14,29,11.30
2013,09,28,14,30,6.40
2013,09,28,14,31,6.40
2013,09,28,14,32,8.10
2013,09,28,14,33,9.60
2013,09,28,14,34,8.10
2013,09,28,14,35,9.60
2013,09,28,14,36,4.80
2013,09,28,14,37,1.60
2013,09,28,14,38,6.40
2013,09,28,14,39,9.60
2013,09,28,14,40,8.10
2013,09,28,14,41,9.60
2013,09,28,14,42,16.10
2013,09,28,14,43,11.30
2013,09,28,14,44,9.60
2013,09,28,14,45,8.10
2013,09,28,14,46,9.60
2013,09,28,14,47,8.10
2013,09,28,14,48,9.60
2013,09,28,14,49,9.60
2013,09,28,14,50,11.30
2013,09,28,14,51,14.50
2013,09,28,14,52,19.30
2013,09,28,14,53,19.30
2013,09,28,14,54,16.10
2013,09,28,14,55,20.90
2013,09,28,14,56,16.10
2013,09,28,14,57,17.70
2013,09,28,14,58,14.50
2013,09,28,14,59,11.30
2013,09,28,15,00,11.30
2013,09,28,15,01,12.90
2013,09,28,15,02,16.10
2013,09,28,15,03,14.50
2013,09,28,15,04,8.10
2013,09,28,15,05,11.30
2013,09,28,15,06,11.30
2013,09,28,15,07,11.30
2013,09,28,15,08,12.90
2013,09,28,15,09,16.10
2013,09,28,15,10,16.10
2013,09,28,15,11,16.10
2013,09,28,15,12,9.60
2013,09,28,15,13,8.10
2013,09,28,15,14,6.40
2013,09,28,15,15,6.40
2013,09,28,15,16,9.60
2013,09,28,15,17,8.10
2013,09,28,15,18,6.40
2013,09,28,15,19,9.60
2013,09,28,15,20,16.10
2013,09,28,15,21,14.50
2013,09,28,15,22,8.10
2013,09,28,15,23,11.30
2013,09,28,15,24,11.30
2013,09,28,15,25,6.40
2013,09,28,15,27,4.80
2013,09,28,15,28,3.20
2013,09,28,15,31,4.80
2013,09,28,15,32,8.10
2013,09,28,15,33,6.40
2013,09,28,15,34,1.60
2013,09,28,15,36,3.20
2013,09,28,15,38,4.80
2013,09,28,15,39,3.20
2013,09,28,15,40,8.10
2013,09,28,15,41,6.40
2013,09,28,15,42,4.80
2013,09,28,15,43,1.60
2013,09,28,15,44,3.20
2013,09,28,15,45,3.20
2013,09,28,15,46,4.80
2013,09,28,15,47,11.30
2013,09,28,15,48,11.30
2013,09,28,15,49,9.60
2013,09,28,15,50,8.10
2013,09,28,15,51,8.10
2013,09,28,15,52,8.10
2013,09,28,15,53,1.60
2013,09,28,15,54,8.10
2013,09,28,15,55,9.60
2013,09,28,15,56,8.10
2013,09,28,15,57,9.60
2013,09,28,15,58,9.60
2013,09,28,15,59,6.40
2013,09,28,16,00,11.30
2013,09,28,16,01,8.10
2013,09,28,16,02,6.40
2013,09,28,16,03,1.60
2013,09,28,16,04,4.80
2013,09,28,16,05,6.40
2013,09,28,16,06,9.60
2013,09,28,16,07,20.90
2013,09,28,16,08,11.30
2013,09,28,16,09,9.60
2013,09,28,16,10,17.70
2013,09,28,16,11,16.10
2013,09,28,16,12,24.20
2013,09,28,16,13,22.50
2013,09,28,16,14,22.50
2013,09,28,16,15,11.30
2013,09,28,16,16,8.10
2013,09,28,16,17,8.10
2013,09,28,16,18,22.50
2013,09,28,16,19,20.90
2013,09,28,16,20,17.70
2013,09,28,16,21,8.10
2013,09,28,16,22,9.60
2013,09,28,16,23,8.10
2013,09,28,16,24,17.70
2013,09,28,16,25,14.50
2013,09,28,16,26,20.90
2013,09,28,16,27,22.50
2013,09,28,16,28,22.50
2013,09,28,16,29,22.50
2013,09,28,16,30,9.60
2013,09,28,16,31,11.30
2013,09,28,16,32,16.10
2013,09,28,16,33,11.30
2013,09,28,16,34,17.70
2013,09,28,16,35,20.90
2013,09,28,16,36,11.30
2013,09,28,16,37,14.50
2013,09,28,16,38,22.50
2013,09,28,16,39,17.70
2013,09,28,16,40,25.70
2013,09,28,16,41,19.30
2013,09,28,16,42,17.70
2013,09,28,16,43,9.60
2013,09,28,16,44,19.30
2013,09,28,16,45,8.10
2013,09,28,16,46,14.50
2013,09,28,16,47,17.70
2013,09,28,16,48,29.00
2013,09,28,16,49,24.20
2013,09,28,16,50,25.70
2013,09,28,16,51,17.70
2013,09,28,16,52,20.90
2013,09,28,16,53,20.90
2013,09,28,16,54,16.10
2013,09,28,16,55,17.70
2013,09,28,16,56,29.00
2013,09,28,16,57,27.40
2013,09,28,16,58,17.70
2013,09,28,16,59,29.00
2013,09,28,17,00,19.30
2013,09,28,17,01,19.30
2013,09,28,17,02,27.40
2013,09,28,17,03,17.70
2013,09,28,17,04,19.30
2013,09,28,17,05,11.30
2013,09,28,17,06,8.10
2013,09,28,17,07,4.80
2013,09,28,17,08,30.60
2013,09,28,17,09,24.20
2013,09,28,17,10,22.50
2013,09,28,17,11,11.30
2013,09,28,17,12,16.10
2013,09,28,17,13,16.10
2013,09,28,17,14,19.30
2013,09,28,17,15,14.50
2013,09,28,17,16,16.10
2013,09,28,17,17,19.30
2013,09,28,17,18,16.10
2013,09,28,17,19,16.10
2013,09,28,17,20,19.30
2013,09,28,17,21,19.30
2013,09,28,17,22,17.70
2013,09,28,17,23,8.10
2013,09,28,17,24,17.70
2013,09,28,17,25,17.70
2013,09,28,17,26,14.50
2013,09,28,17,27,9.60
2013,09,28,17,28,6.40
2013,09,28,17,29,16.10
2013,09,28,17,30,16.10
2013,09,28,17,31,19.30
2013,09,28,17,32,22.50
2013,09,28,17,33,16.10
2013,09,28,17,34,12.90
2013,09,28,17,35,20.90
2013,09,28,17,36,22.50
2013,09,28,17,37,19.30
2013,09,28,17,38,19.30
2013,09,28,17,39,22.50
2013,09,28,17,40,14.50
2013,09,28,17,41,19.30
2013,09,28,17,42,11.30
2013,09,28,17,43,14.50
2013,09,28,17,44,19.30
2013,09,28,17,45,8.10
2013,09,28,17,46,16.10
2013,09,28,17,47,14.50
2013,09,28,17,48,8.10
2013,09,28,17,49,8.10
2013,09,28,17,50,17.70
2013,09,28,17,51,8.10
2013,09,28,17,52,19.30
2013,09,28,17,53,9.60
2013,09,28,17,54,19.30
2013,09,28,17,55,9.60
2013,09,28,17,56,14.50
2013,09,28,17,57,17.70
2013,09,28,17,58,17.70
2013,09,28,17,59,14.50
2013,09,28,18,00,6.40
2013,09,28,18,01,8.10
2013,09,28,18,02,16.10
2013,09,28,18,03,20.90
2013,09,28,18,04,16.10
2013,09,28,18,05,20.90
2013,09,28,18,06,17.70
2013,09,28,18,07,19.30
2013,09,28,18,08,9.60
2013,09,28,18,09,9.60
2013,09,28,18,10,16.10
2013,09,28,18,11,17.70
2013,09,28,18,12,14.50
2013,09,28,18,13,9.60
2013,09,28,18,14,4.80
2013,09,28,18,15,14.50
2013,09,28,18,16,16.10
2013,09,28,18,17,14.50
2013,09,28,18,18,16.10
2013,09,28,18,19,20.90
2013,09,28,18,20,16.10
2013,09,28,18,21,22.50
2013,09,28,18,22,20.90
2013,09,28,18,23,24.20
2013,09,28,18,24,19.30
2013,09,28,18,25,29.00
2013,09,28,18,26,24.20
2013,09,28,18,27,22.50
2013,09,28,18,28,17.70
2013,09,28,18,29,20.90
2013,09,28,18,30,27.40
2013,09,28,18,31,19.30
2013,09,28,18,32,32.20
2013,09,28,18,33,29.00
2013,09,28,18,34,24.20
2013,09,28,18,35,22.50
2013,09,28,18,36,22.50
2013,09,28,18,37,35.40
2013,09,28,18,38,33.80
2013,09,28,18,39,25.70
2013,09,28,18,40,29.00
2013,09,28,18,41,16.10
2013,09,28,18,42,25.70
2013,09,28,18,43,25.70
2013,09,28,18,44,27.40
2013,09,28,18,45,29.00
2013,09,28,18,46,32.20
2013,09,28,18,47,20.90
2013,09,28,18,48,22.50
2013,09,28,18,49,25.70
2013,09,28,18,50,25.70
2013,09,28,18,51,37.00
2013,09,28,18,52,29.00
2013,09,28,18,53,25.70
2013,09,28,18,54,32.20
2013,09,28,18,55,22.50
2013,09,28,18,56,25.70
2013,09,28,18,57,19.30
2013,09,28,18,58,24.20
2013,09,28,18,59,20.90
2013,09,28,19,00,19.30
2013,09,28,19,01,20.90
2013,09,28,19,02,17.70
2013,09,28,19,03,14.50
2013,09,28,19,04,16.10
2013,09,28,19,05,16.10
2013,09,28,19,06,17.70
2013,09,28,19,07,17.70
2013,09,28,19,08,12.90
2013,09,28,19,09,11.30
2013,09,28,19,10,14.50
2013,09,28,19,11,16.10
2013,09,28,19,12,20.90
2013,09,28,19,13,17.70
2013,09,28,19,14,11.30
2013,09,28,19,15,9.60
2013,09,28,19,16,11.30
2013,09,28,19,17,29.00
2013,09,28,19,18,17.70
2013,09,28,19,19,14.50
2013,09,28,19,20,12.90
2013,09,28,19,21,17.70
2013,09,28,19,22,6.40
2013,09,28,19,23,16.10
2013,09,28,19,24,17.70
2013,09,28,19,25,14.50
2013,09,28,19,26,19.30
2013,09,28,19,27,17.70
2013,09,28,19,28,22.50
2013,09,28,19,29,20.90
2013,09,28,19,30,17.70
2013,09,28,19,31,17.70
2013,09,28,19,32,16.10
2013,09,28,19,33,14.50
2013,09,28,19,34,14.50
2013,09,28,19,35,9.60
2013,09,28,19,36,9.60
2013,09,28,19,37,8.10
2013,09,28,19,38,9.60
2013,09,28,19,39,9.60
2013,09,28,19,40,4.80
2013,09,28,19,41,4.80
2013,09,28,19,42,6.40
2013,09,28,19,43,1.60
2013,09,28,19,44,1.60
2013,09,28,19,45,6.40
2013,09,28,19,46,9.60
2013,09,28,19,47,9.60
2013,09,28,19,48,6.40
2013,09,28,19,49,8.10
2013,09,28,19,50,11.30
2013,09,28,19,51,9.60
2013,09,28,19,52,11.30
2013,09,28,19,53,11.30
2013,09,28,19,54,6.40
2013,09,28,19,55,8.10
2013,09,28,19,56,8.10
2013,09,28,19,57,8.10
2013,09,28,19,58,9.60
2013,09,28,19,59,6.40
2013,09,28,20,00,6.40
2013,09,28,20,01,8.10
2013,09,28,20,02,9.60
2013,09,28,20,03,4.80
2013,09,28,20,04,6.40
2013,09,28,20,05,9.60
2013,09,28,20,06,11.30
2013,09,28,20,07,9.60
2013,09,28,20,08,8.10
2013,09,28,20,09,9.60
2013,09,28,20,10,11.30
2013,09,28,20,11,8.10
2013,09,28,20,12,6.40
2013,09,28,20,13,6.40
2013,09,28,20,14,6.40
2013,09,28,20,15,6.40
2013,09,28,20,16,6.40
2013,09,28,20,17,6.40
2013,09,28,20,18,1.60
2013,09,28,20,19,16.10
2013,09,28,20,20,16.10
2013,09,28,20,21,8.10
2013,09,28,20,22,8.10
2013,09,28,20,23,1.60
2013,09,28,20,24,4.80
2013,09,28,20,25,3.20
2013,09,28,20,26,1.60
2013,09,28,20,27,3.20
2013,09,28,20,28,8.10
2013,09,28,20,29,3.20
2013,09,28,20,30,4.80
2013,09,28,20,31,9.60
2013,09,28,20,32,8.10
2013,09,28,20,33,9.60
2013,09,28,20,34,6.40
2013,09,28,20,35,8.10
2013,09,28,20,36,4.80
2013,09,28,20,37,4.80
2013,09,28,20,38,8.10
2013,09,28,20,39,8.10
2013,09,28,20,40,6.40
2013,09,28,20,41,6.40
2013,09,28,20,42,4.80
2013,09,28,20,43,6.40
2013,09,28,20,44,4.80
2013,09,28,20,45,6.40
2013,09,28,20,47,3.20
2013,09,28,20,55,3.20
2013,09,28,20,58,1.60
2013,09,28,20,59,1.60
2013,09,28,21,00,1.60
2013,09,28,21,01,3.20
2013,09,28,21,02,1.60
2013,09,28,21,03,1.60
2013,09,28,21,06,1.60
2013,09,28,21,07,1.60
2013,09,28,21,10,1.60
2013,09,28,21,11,3.20
2013,09,28,21,12,3.20
2013,09,28,21,13,4.80
2013,09,28,21,14,4.80
2013,09,28,21,18,3.20
2013,09,28,21,19,1.60
2013,09,28,21,23,3.20
2013,09,28,21,24,3.20
2013,09,28,21,37,1.60
2013,09,28,21,38,3.20
2013,09,28,21,39,3.20
2013,09,28,21,40,4.80
2013,09,28,21,41,4.80
2013,09,28,21,42,6.40
2013,09,28,21,43,4.80
2013,09,28,21,44,11.30
2013,09,28,21,45,9.60
2013,09,28,21,46,16.10
2013,09,28,21,47,8.10
2013,09,28,21,48,4.80
2013,09,28,21,49,6.40
2013,09,28,21,50,14.50
2013,09,28,21,51,14.50
2013,09,28,21,52,20.90
2013,09,28,21,53,14.50
2013,09,28,21,54,16.10
2013,09,28,21,55,11.30
2013,09,28,21,56,11.30
2013,09,28,21,57,9.60
2013,09,28,21,58,16.10
2013,09,28,21,59,19.30
2013,09,28,22,00,9.60
2013,09,28,22,01,16.10
2013,09,28,22,02,14.50
2013,09,28,22,03,9.60
2013,09,28,22,04,11.30
2013,09,28,22,05,6.40
2013,09,28,22,06,11.30
2013,09,28,22,07,11.30
2013,09,28,22,08,8.10
2013,09,28,22,09,11.30
2013,09,28,22,10,4.80
2013,09,28,22,11,4.80
2013,09,28,22,12,8.10
2013,09,28,22,13,4.80
2013,09,28,22,14,6.40
2013,09,28,22,15,6.40
2013,09,28,22,16,6.40
2013,09,28,22,17,8.10
2013,09,28,22,18,4.80
2013,09,28,22,19,4.80
2013,09,28,22,20,8.10
2013,09,28,22,21,4.80
2013,09,28,22,22,3.20
2013,09,28,22,23,4.80
2013,09,28,22,24,4.80
2013,09,28,22,25,3.20
2013,09,28,22,27,3.20
2013,09,28,22,30,6.40
2013,09,28,22,31,8.10
2013,09,28,22,32,14.50
2013,09,28,22,33,11.30
2013,09,28,22,34,6.40
2013,09,28,22,35,4.80
2013,09,28,22,36,6.40
2013,09,28,22,37,6.40
2013,09,28,22,38,9.60
2013,09,28,22,39,3.20
2013,09,28,22,40,4.80
2013,09,28,22,42,6.40
2013,09,28,22,43,8.10
2013,09,28,22,44,6.40
2013,09,28,22,45,4.80
2013,09,28,22,46,1.60
2013,09,28,22,55,3.20
2013,09,28,22,56,4.80
2013,09,28,22,57,4.80
2013,09,28,22,58,3.20
2013,09,28,22,59,3.20
2013,09,28,23,00,4.80
2013,09,28,23,01,6.40
2013,09,28,23,02,6.40
2013,09,28,23,03,6.40
2013,09,28,23,04,8.10
2013,09,28,23,05,6.40
2013,09,28,23,06,8.10
2013,09,28,23,07,8.10
2013,09,28,23,08,8.10
2013,09,28,23,09,9.60
2013,09,28,23,10,9.60
2013,09,28,23,11,8.10
2013,09,28,23,12,4.80
2013,09,28,23,13,6.40
2013,09,28,23,14,4.80
2013,09,28,23,15,4.80
2013,09,28,23,16,6.40
2013,09,28,23,17,6.40
2013,09,28,23,18,6.40
2013,09,28,23,19,4.80
2013,09,28,23,20,9.60
2013,09,28,23,21,9.60
2013,09,28,23,22,6.40
2013,09,28,23,23,8.10
2013,09,28,23,24,8.10
2013,09,28,23,25,6.40
2013,09,28,23,26,4.80
2013,09,28,23,27,3.20
2013,09,28,23,29,1.60
2013,09,28,23,30,1.60
2013,09,28,23,32,3.20
2013,09,28,23,33,3.20
2013,09,28,23,34,3.20
2013,09,28,23,39,1.60
2013,09,28,23,40,3.20
2013,09,28,23,42,1.60
2013,09,28,23,47,1.60
2013,09,28,23,48,3.20
2013,09,28,23,52,4.80
2013,09,28,23,53,4.80
2013,09,28,23,54,3.20
2013,09,28,23,58,1.60
2013,09,28,23,59,1.60
